User: anonymous   Login
Location: Santa Teresa Spring
(37.2333°N, 121.7000°W)
Time: 12:54:34
(UTC-08:00)
Language:

Cosmos 1633 - Orbit

View from above orbital plane
View from above orbital plane
View from above satellite
View from above satellite

Ground track
Ground track

The orbit data is extracted from the following two-line orbital elements,

1 15592U 85020A   14354.38766491  .00009153  00000-0  40734-3 0  6264
2 15592 082.5394 147.1949 0016959 139.2907 280.1769 15.21205556625560
Epoch (UTC): 20 December 2014 09:18:14
Eccentricity: 0.0016959
inclination: 82.5394°
perigee height: 490 km
apogee height: 514 km
right ascension of ascending node: 147.1949°
argument of perigee: 139.2907°
revolutions per day: 15.21205556
mean anomaly at epoch: 280.1769°
orbit number at epoch: 62556

The dashed part of the orbit path shows where the satellite is in the earth's shadow,  

DLR